Date String (YYYY-MM-DD hh:mm:ss) UTC,Instrument flags,absolute air pressure of the measurement (hPa),sample flow rate (lpm),inlet stack bypass flow (lpm),air temperature of the measurement (°C),ambient temperature measured by the external sensor (°C),aerosol sample conditioner tube jacket temperature (°C),OPC LED temperature (°C),internal box temperature (°C),relative humidity of the measurement (%),span deviation,mass concentration of particles derived from Lorenz-Mie calculation of OPC scattering (μg/m³),mass concentration of particles derived from Lorenz-Mie calculation of OPC scattering (μg/m³),mass concentration of particles derived from Lorenz-Mie calculation of OPC scattering (μg/m³)
DateTimeUTC,F1_M11,P_M11,Q1_M11,Q2_M11,T1_M11,T2_M11,T3_M11,T4_M11,T5_M11,U1_M11,ZSPAN_M11,X0_M11,X2_M11,X1_M11
2023-12-13 12:00:00,SystemResetWarning,0838.2,5.00,000.00,018.7,017.7,000.0,027.1,020.0,21.1,0000.0,0011.02,0006.48,0006.01
2023-12-13 12:01:00,SystemResetWarning,0838.2,5.00,000.00,018.7,017.7,000.0,027.1,020.0,21.1,0000.0,0011.07,0006.49,0006.00
2023-12-13 12:02:00,SystemResetWarning,0838.2,4.99,000.00,018.7,017.7,000.0,027.1,020.0,21.1,0000.0,0011.19,0006.47,0005.99
2023-12-13 12:03:00,SystemResetWarning,0838.2,4.99,000.00,018.7,017.7,000.0,027.1,020.0,21.1,0000.0,0011.30,0006.47,0005.98
2023-12-13 12:04:00,SystemResetWarning,0838.2,5.00,000.00,018.7,017.7,000.0,027.1,020.0,21.1,0000.0,0011.13,0006.44,0005.96
2023-12-13 12:05:00,SystemResetWarning,0838.3,5.00,000.00,018.7,017.7,000.0,027.1,020.0,21.1,0000.0,0010.57,0006.46,0005.96
2023-12-13 12:06:00,SystemResetWarning,0838.3,5.00,000.00,018.7,017.7,000.0,027.1,020.0,21.1,0000.0,0010.65,0006.48,0005.95
2023-12-13 12:07:00,SystemResetWarning,0838.3,5.00,000.00,018.7,017.7,000.0,027.1,020.0,21.1,0000.0,0010.64,0006.49,0005.94
2023-12-13 12:08:00,SystemResetWarning,0838.3,5.00,000.00,018.7,017.7,000.0,027.1,020.0,21.1,0000.0,0010.79,0006.49,0005.93
2023-12-13 12:09:00,SystemResetWarning,0838.3,5.00,000.00,018.7,017.7,000.0,027.1,020.1,21.1,0000.0,0010.80,0006.50,0005.92
2023-12-13 12:10:00,SystemResetWarning,0838.3,5.01,000.00,018.8,017.8,000.0,027.1,020.5,21.1,0000.0,0010.99,0006.48,0005.92
2023-12-13 12:11:00,SystemResetWarning,0838.4,5.00,000.00,018.9,018.4,000.0,027.1,020.8,20.9,0000.0,0010.92,0006.46,0005.91
2023-12-13 12:12:00,SystemResetWarning,0838.4,4.99,000.00,019.0,018.7,000.0,027.2,020.7,20.8,0000.0,0010.78,0006.44,0005.90
2023-12-13 12:13:00,SystemResetWarning,0838.4,4.99,000.00,019.0,018.6,000.0,027.2,020.4,20.8,0000.0,0010.64,0006.43,0005.90
2023-12-13 12:14:00,SystemResetWarning,0838.4,5.00,000.00,019.0,018.5,000.0,027.2,020.3,20.8,0000.0,0010.54,0006.40,0005.88
2023-12-13 12:15:00,SystemResetWarning,0838.4,5.00,000.00,019.0,018.5,000.0,027.2,020.3,20.8,0000.0,0010.49,0006.42,0005.89
2023-12-13 12:16:00,SystemResetWarning,0838.4,5.01,000.00,019.0,018.4,000.0,027.2,020.2,20.8,0000.0,0010.28,0006.37,0005.87
2023-12-13 12:17:00,SystemResetWarning,0838.4,5.00,000.00,019.0,018.4,000.0,027.2,020.2,20.8,0000.0,0010.20,0006.32,0005.86
2023-12-13 12:18:00,SystemResetWarning,0838.3,5.00,000.00,018.9,018.3,000.0,027.2,020.1,20.9,0000.0,0010.90,0006.29,0005.84
2023-12-13 12:19:00,SystemResetWarning,0838.4,5.00,000.00,018.9,018.3,000.0,027.2,020.1,20.9,0000.0,0010.99,0006.26,0005.82
2023-12-13 12:20:00,SystemResetWarning,0838.5,5.00,000.00,018.9,018.2,000.0,027.2,020.1,21.0,0000.0,0011.06,0006.26,0005.82
2023-12-13 12:21:00,SystemResetWarning,0838.5,4.99,000.00,018.9,018.2,000.0,027.2,020.1,21.0,0000.0,0011.50,0006.25,0005.81
2023-12-13 12:22:00,SystemResetWarning,0838.5,5.00,000.00,018.9,018.1,000.0,027.2,020.0,20.9,0000.0,0011.29,0006.23,0005.78
2023-12-13 12:23:00,SystemResetWarning,0838.6,5.00,000.00,018.9,018.1,000.0,027.2,020.0,20.9,0000.0,0011.23,0006.21,0005.77
2023-12-13 12:24:00,SystemResetWarning,0838.6,5.00,000.00,018.8,018.1,000.0,027.2,020.0,20.9,0000.0,0011.40,0006.23,0005.77
2023-12-13 12:25:00,SystemResetWarning,0838.6,5.00,000.00,018.8,018.0,000.0,027.2,020.0,20.9,0000.0,0011.49,0006.26,0005.77
2023-12-13 12:26:00,SystemResetWarning,0838.5,5.01,000.00,018.8,018.0,000.0,027.2,020.0,20.9,0000.0,0011.49,0006.25,0005.76
2023-12-13 12:27:00,SystemResetWarning,0838.6,5.01,000.00,018.8,018.0,000.0,027.2,020.0,21.0,0000.0,0011.58,0006.26,0005.77
2023-12-13 12:28:00,SystemResetWarning,0838.5,5.00,000.00,018.8,018.0,000.0,027.2,020.0,21.0,0000.0,0011.58,0006.24,0005.77
2023-12-13 12:29:00,SystemResetWarning,0838.5,5.00,000.00,018.8,018.0,000.0,027.2,020.0,21.0,0000.0,0010.90,0006.21,0005.76
2023-12-13 12:30:00,SystemResetWarning,0838.6,5.00,000.00,018.8,018.0,000.0,027.2,020.0,21.0,0000.0,0011.21,0006.20,0005.75
2023-12-13 12:31:00,SystemResetWarning,0838.6,4.99,000.00,018.8,018.0,000.0,027.2,020.0,21.0,0000.0,0011.49,0006.18,0005.75
2023-12-13 12:32:00,SystemResetWarning,0838.6,5.00,000.00,018.8,017.9,000.0,027.2,020.0,21.0,0000.0,0011.61,0006.20,0005.76
2023-12-13 12:33:00,SystemResetWarning,0838.6,5.00,000.00,018.8,017.9,000.0,027.2,020.0,21.0,0000.0,0011.27,0006.23,0005.79
2023-12-13 12:34:00,SystemResetWarning,0838.6,5.01,000.00,018.8,017.9,000.0,027.2,020.0,21.0,0000.0,0011.43,0006.25,0005.80
2023-12-13 12:35:00,SystemResetWarning,0838.6,5.01,000.00,018.8,017.9,000.0,027.2,020.0,21.0,0000.0,0011.30,0006.23,0005.80
2023-12-13 12:36:00,SystemResetWarning,0838.6,5.00,000.00,018.8,017.9,000.0,027.2,020.0,21.0,0000.0,0011.35,0006.20,0005.81
2023-12-13 12:37:00,SystemResetWarning,0838.6,4.99,000.00,018.8,017.9,000.0,027.2,020.0,21.0,0000.0,0011.42,0006.23,0005.82
2023-12-13 12:38:00,SystemResetWarning,0838.6,4.99,000.00,018.8,017.9,000.0,027.1,020.0,21.0,0000.0,0011.31,0006.21,0005.81
2023-12-13 12:39:00,SystemResetWarning,0838.6,5.00,000.00,018.8,017.9,000.0,027.1,020.0,21.0,0000.0,0011.38,0006.23,0005.83
2023-12-13 12:40:00,SystemResetWarning,0838.6,5.01,000.00,018.8,017.9,000.0,027.1,020.0,21.0,0000.0,0011.16,0006.24,0005.84
2023-12-13 12:41:00,SystemResetWarning,0838.6,5.00,000.00,018.8,017.9,000.0,027.1,020.0,21.0,0000.0,0010.58,0006.23,0005.85
2023-12-13 12:42:00,SystemResetWarning,0838.6,4.98,000.00,018.8,017.9,000.0,027.1,020.0,21.0,0000.0,0010.11,0006.23,0005.86
2023-12-13 12:43:00,SystemResetWarning,0838.6,5.00,000.00,018.8,017.9,000.0,027.1,020.0,21.0,0000.0,0009.66,0006.23,0005.86
2023-12-13 12:44:00,SystemResetWarning,0838.6,5.00,000.00,018.8,017.9,000.0,027.1,020.0,21.1,0000.0,0009.70,0006.21,0005.87
2023-12-13 12:45:00,SystemResetWarning,0838.6,5.00,000.00,018.8,017.9,000.0,027.1,020.0,21.1,0000.0,0009.56,0006.20,0005.87
2023-12-13 12:46:00,SystemResetWarning,0838.6,5.00,000.00,018.8,017.9,000.0,027.1,020.0,21.1,0000.0,0009.88,0006.19,0005.88
2023-12-13 12:47:00,SystemResetWarning,0838.7,5.00,000.00,018.8,017.9,000.0,027.1,020.0,21.1,0000.0,0010.27,0006.19,0005.89
2023-12-13 12:48:00,SystemResetWarning,0838.7,5.00,000.00,018.8,017.8,000.0,027.1,020.0,21.1,0000.0,0010.90,0006.22,0005.91
2023-12-13 12:49:00,SystemResetWarning,0838.7,5.00,000.00,018.8,017.8,000.0,027.1,020.0,21.1,0000.0,0011.19,0006.31,0005.94
2023-12-13 12:50:00,SystemResetWarning,0838.7,5.00,000.00,018.8,017.8,000.0,027.1,020.0,21.1,0000.0,0011.21,0006.35,0005.96
2023-12-13 12:51:00,SystemResetWarning,0838.8,5.00,000.00,018.8,017.8,000.0,027.1,020.0,21.1,0000.0,0012.06,0006.36,0005.98
2023-12-13 12:52:00,SystemResetWarning,0838.8,5.00,000.00,018.8,017.8,000.0,027.1,020.0,21.2,0000.0,0012.24,0006.42,0006.02
2023-12-13 12:53:00,SystemResetWarning,0838.8,5.00,000.00,018.8,017.8,000.0,027.1,020.0,21.2,0000.0,0012.23,0006.45,0006.06
2023-12-13 12:54:00,SystemResetWarning,0838.7,5.00,000.00,018.8,017.8,000.0,027.1,020.0,21.2,0000.0,0012.12,0006.52,0006.09
2023-12-13 12:55:00,SystemResetWarning,0838.8,5.00,000.00,018.8,017.8,000.0,027.1,020.0,21.2,0000.0,0012.01,0006.57,0006.12
2023-12-13 12:56:00,SystemResetWarning,0838.8,5.00,000.00,018.8,017.8,000.0,027.1,020.0,21.2,0000.0,0012.07,0006.63,0006.17
2023-12-13 12:57:00,SystemResetWarning,0838.8,5.00,000.00,018.8,017.8,000.0,027.1,020.0,21.2,0000.0,0011.85,0006.69,0006.21
2023-12-13 12:58:00,SystemResetWarning,0838.8,5.00,000.00,018.8,017.8,000.0,027.1,020.0,21.3,0000.0,0011.81,0006.76,0006.24
2023-12-13 12:59:00,SystemResetWarning,0838.8,5.00,000.00,018.8,017.8,000.0,027.1,020.0,21.2,0000.0,0011.41,0006.83,0006.28
